Inclination: 098.7179 deg
RA of node: 125.5495 deg
Eccentricity: 0.0004260
Arg of perigee: 327.8404 deg
Mean anomaly: 032.2480 deg
Mean motion: 14.22001758 rev/day
Decay rate: 1.77e-06 rev/day^2
Epoch rev: 7652
Checksum: 295
/EX
1
0
SB KEPS @ AMSAT $ORB11062.N
2Line Orbital Elements 11062.AMSAT
HR AMSAT ORBITAL ELEMENTS FOR AMATEUR SATELLITES IN NASA FORMAT
FROM WA5QGD FORT WORTH,TX March 3, 2011
Send Subscribe/unsubscribe to KEPS at http://www.amsat.org/mailman/listinfo/keps
BID: ORB11062.N
DECODE 2-LINE ELSETS WITH THE FOLLOWING KEY:
1 AAAAAU 00 0 0 BBBBB.BBBBBBBB .CCCCCCCC 00000-0 00000-0 0 DDDZ
2 AAAAA EEE.EEEE FFF.FFFF GGGGGGG HHH.HHHH III.IIII JJ.JJJJJJJJKKKKKZ
KEY: A-CATALOGNUM B-EPOCHTIME C-DECAY D-ELSETNUM E-INCLINATION F-RAAN
G-ECCENTRICITY H-ARGPERIGEE I-MNANOM J-MNMOTION K-ORBITNUM Z-CHECKSUM
TO ALL RADIO AMATEURS BT
AO-07
1 07530U 74089B 11061.85448544 -.00000027 00000-0 10000-3 0 179
2 07530 101.3952 072.5875 0012113 127.4528 232.7639 12.53581314660860
FO-29
1 24278U 96046B 11061.93552366 -.00000004 00000-0 30625-4 0 05560
2 24278 098.5288 220.4661 0350866 172.5551 188.0995 13.52958173718099
SO-33
1 25509U 98061B 11061.51273896 .00000123 00000-0 13999-4 0 09165
2 25509 031.4320 127.6228 0353268 028.6850 333.2762 14.28370443645018
RS-22
1 27939U 03042A 11062.66335785 .00000205 00000-0 48133-4 0 410
2 27939 097.8597 281.6257 0013120 323.6785 036.3527 14.63517759396900
VO-52
1 28650U 05017B 11061.62014122 .00000159 00000-0 26380-4 0 07324
2 28650 097.6571 109.4577 0027610 148.6134 211.6770 14.81920703314966
SO-67
1 35870U 09049F 11062.76748554 .00001152 00000-0 54383-4 0 6130
2 35870 097.2961 109.5287 0001460 277.2231 218.5838 15.21384260 80911
HO-68
1 36122U 09072B 11062.73970298 -.00000045 00000-0 00000 0 0 1628
2 36122 100.4291 125.0979 0008078 104.8579 255.3432 13.16284352 58364
UO-11
1 14781U 84021B 11061.71898775 .00000158 00000-0 27913-4 0 04868
2 14781 098.0176 118.6990 0009945 118.6970 241.5265 14.79896111450042
AO-16
1 20439U 90005D 11061.73932052 .00000036 00000-0 28948-4 0 01314
2 20439 098.3705 014.9859 0011576 116.2290 244.0086 14.31897749102380
LO-19
1 20442U 90005G 11062.74383447 .00000008 00000-0 18261-4 0 403
2 20442 098.3333 020.7173 0012768 108.7259 251.5304 14.32125310102701
AO-27
1 22825U 93061C 11061.46678217 -.00000060 00000-0 -64757-5 0 07628
2 22825 098.5187 008.1826 0007765 225.7538 134.2991 14.29328207908948
IO-26
1 22826U 93061D 11061.41571320 .00000050 00000-0 36516-4 0 05009
2 22826 098.5138 008.6432 0008215 221.4068 138.6483 14.29588585909059
GO-32
1 25397U 98043D 11061.96379166 .00000030 00000-0 31362-4 0 04229
2 25397 098.3217 060.2348 0000806 177.0691 183.0509 14.23197593656856
NO-44
1 26931U 01043C 11061.84488080 .00000143 00000-0 87982-4 0 6924
2 26931 067.0506 257.5371 0007039 271.6407 088.3932 14.29636427491723
SO-50
1 27607U 02058C 11061.92476130 .00000004 00000-0 22563-4 0 04067
2 27607 064.5598 290.5516 0060897 345.9384 014.0002 14.71653317440457
CO-55
1 27844U 03031E 11062.61315431 .00000093 00000-0 63218-4 0 577
2 27844 098.7085 072.8427 0009944 138.6514 221.5412 14.20772846397926
CO-57
1 27848U 03031J 11061.55425358 .00000073 00000-0 54162-4 0 00041
2 27848 098.7147 070.9534 0009990 146.9587 213.2234 14.20557150397727
AO-51
1 28375U 04025K 11061.50668834 .00000065 00000-0 32146-4 0 9097
2 28375 098.0864 045.6236 0085044 033.8309 326.8268 14.40727467350707
CP3
1 31129U 07012N 11062.60951959 .00000298 00000-0 78645-4 0 8116
2 31129 097.9109 092.8806 0102755 148.3927 212.3521 14.52385291205519
CO-65
1 32785U 08021C 11061.39588978 .00000109 00000-0 20424-4 0 09303
2 32785 097.8615 127.2828 0015163 160.4431 199.7383 14.81839191153721
KKS-1
1 33493U 09002B 11062.66679885 .00000678 00000-0 93599-4 0 3611
2 33493 098.1090 189.8604 0020334 025.2905 334.9301 14.81352996113895
SOHLA-1
1 33496U 09002E 11062.51566337 .00000222 00000-0 45561-4 0 3481
2 33496 098.0682 173.4845 0007683 098.8504 261.3580 14.69561835112962
TISAT-1
1 36799U 10035E 11062.70079988 .00000457 00000-0 67051-4 0 6357
2 36799 098.1138 129.8695 0014223 256.8376 103.1260 14.80335008 34704
STUDSAT
1 36801U 10035G 11062.77111686 .00001413 00000-0 19354-3 0 1428
2 36801 098.1157 129.7894 0012972 244.7384 115.2485 14.80055226 34707
RAX
1 37223U 0 11047.27696737 .00000210 00000-0 37394-4 0 00845
2 37223 071.9744 305.5778 0020243 156.1195 204.0952 14.77236729013032
OOREOS
1 37224U 10062C 11043.43618410 .00000219 00000-0 38954-4 0 00810
2 37224 071.9758 314.1598 0019424 162.0076 198.1778 14.76892599012453
NANOSALD
1 37225U 0 11061.29826209 .00030671 00000-0 40629-2 0 00638
2 37225 071.9782 274.6600 0027514 083.3818 277.0830 14.79496660006207
FAST1-2
1 37227U 0 11061.48743218 .00000114 00000-0 24336-4 0 00929
2 37227 071.9726 274.5102 0015984 122.6347 237.6379 14.76396633015111
NOAA-10
1 16969U 86073A 11062.15675212 -.00000014 00000-0 12204-4 0 4145
2 16969 098.6308 093.3319 0012261 171.4831 188.6554 14.27445474272529
NOAA-11
1 19531U 88089A 11062.26886831 -.00000210 00000-0 -85983-4 0 4216
2 19531 098.7531 151.7343 0011779 127.6772 232.5434 14.14904417157770
NOAA-12
1 21263U 91032A 11062.32460272 .00000045 00000-0 37553-4 0 9160
2 21263 098.7570 080.3291 0013051 131.5117 228.7186 14.25686577 29325
MET-3/5
1 21655U 91056A 11061.92984833 .00000051 00000-0 10000-3 0 00536
2 21655 082.5574 125.8561 0014689 065.5994 294.6673 13.17024291939734
MET-2/21
1 22782U 93055A 11061.45022013 .00000041 00000-0 23636-4 0 00337
2 22782 082.5450 047.5568 0023629 041.2787 319.0149 13.83652970883799
OKEAN-4
1 23317U 94066A 11062.70660606 .00000482 00000-0 56168-4 0 4890
2 23317 082.5398 111.6314 0023832 105.5142 254.8735 14.82950749884919
NOAA-14
1 23455U 94089A 11062.44670940 .00000004 00000-0 25370-4 0 3992
2 23455 098.8555 146.1201 0008776 216.5462 143.5104 14.13807511834138
NOAA-15
1 25338U 98030A 11062.48412842 .00000183 00000-0 97115-4 0 7294
2 25338 098.6466 050.1220 0011368 043.8278 316.3819 14.24887568665677
RESURS
1 25394U 98043A 11061.60297698 -.00000011 00000-0 12939-4 0 7363
2 25394 098.2997 070.4974 0001301 145.2052 214.9210 14.24224173657135
FENGYUN1
1 25730U 99025A 11061.48005533 .00000337 00000-0 22135-3 0 2700
2 25730 098.8089 025.0602 0022094 252.3434 107.5316 14.08509663608049
OKEAN-0
1 25860U 99039A 11061.90636093 .00000128 00000-0 26984-4 0 02454
2 25860 097.8705 031.3591 0001288 042.7097 317.4211 14.73716463625003
NOAA-16
1 26536U 00055A 11062.46944085 .00000200 00000-0 13315-3 0 2106
2 26536 099.1522 090.8134 0010016 333.2884 026.7766 14.12600971538434
NOAA-17
1 27453U 02032A 11062.58767416 .00000218 00000-0 11239-3 0 2052
2 27453 098.3948 107.0816 0012744 098.2453 262.0189 14.24241838451629
NOAA-18
1 28654U 05018A 11062.54822422 .00000363 00000-0 22515-3 0 6883
2 28654 098.9850 013.5017 0014988 044.6559 315.5792 14.11443377298024
NOAA-19
1 33591U 09005A 11062.59296783 .00000329 00000-0 20699-3 0 8828
2 33591 098.8177 004.5728 0013330 276.0882 083.8737 14.11136621106494
HUBBLE
1 20580U 90037B 11062.21844846 .00000636 00000-0 35625-4 0 7214
2 20580 028.4712 348.5857 0003322 078.4021 281.6963 15.01181443943710
ISS
1 25544U 98067A 11062.66968330 .00024457 00000-0 18183-3 0 9357
2 25544 051.6480 342.0829 0005279 039.9625 033.1957 15.72669582704292
CO-58
1 28895U 05043F 11062.66500318 .00000215 00000-0 53966-4 0 8140
2 28895 097.9837 303.0429 0017283 188.0914 172.0020 14.60016808284842
FALCON
1 30776U 07006E 11061.92760360 .00000936 00000-0 69128-4 0 00346
2 30776 035.4349 272.8750 0001749 293.0256 067.0279 15.04157170219039
MAST
1 31126U 07012K 11061.62482998 .00000226 00000-0 60954-4 0 00999
2 31126 097.9067 094.8213 0095058 141.9198 218.8760 14.53679587205600
CAPE1
1 31130U 07012P 11062.54436351 .00000294 00000-0 77749-4 0 1185
2 31130 097.9132 092.6232 0103431 148.7594 211.9780 14.52299355205308
COMPASS
1 32787U 08021E 11062.77090039 .00000997 00000-0 13149-3 0 9236
2 32787 097.8594 128.5124 0015892 156.5532 203.6412 14.82167179153942
AAUSAT2
1 32788U 08021F 11062.67971755 .00000863 00000-0 11428-3 0 9138
2 32788 097.8590 128.6139 0015292 158.2699 201.9190 14.82330820153942
DO-64
1 32789U 08021G 11061.70529631 .00001098 00000-0 14259-3 0 09309
2 32789 097.8683 128.4740 0015770 158.9709 201.2153 14.82634230153801
CO-66
1 32791U 08021J 11061.75415561 .00000760 00000-0 10247-3 0 09154
2 32791 097.8612 127.4840 0016139 159.0790 201.1108 14.81901442153741
RS-30
1 32953U 08025A 11062.54592523 .00000010 00000-0 00000 0 0 5190
2 32953 082.4978 228.3898 0018127 256.2140 103.6926 12.43010621125961
TACSAT-3
1 35001U 09028A 11062.52820236 .00009896 00000-0 20667-3 0 5190
2 35001 040.4537 092.6982 0021485 146.8256 213.3913 15.45163629100715
PHARMSAT
1 35002U 09028B 11062.22737216 .00007678 00000-0 16041-3 0 4830
2 35002 040.4689 091.9906 0024246 150.2562 209.9638 15.45316424100694
HAWKSAT1
1 35003U 09028C 11062.41356087 .00029740 00000-0 46243-3 0 5310
2 35003 040.4549 073.8505 0021103 174.8135 185.2893 15.52976477100913
CP6
1 35004U 09028D 11062.41053885 .00038411 00000-0 54183-3 0 5352
2 35004 040.4539 069.3068 0021892 183.5147 176.5509 15.55522831100957
AEROCUB3
1 35005U 09028E 11006.09222617 .14049365 73043-5 82692-3 0 6103
2 35005 040.4461 021.7975 0025578 084.1677 280.7191 16.39196088 92544
METEOR-M
1 35865U 09049A 11062.73501566 .00000176 00000-0 10000-3 0 1532
2 35865 098.7212 119.1671 0002649 356.0011 004.1100 14.21834763 75604
RS-38
1 35869U 09049E 11062.74775155 .00000177 00000-0 10000-3 0 1625
2 35869 098.7183 119.2199 0004607 345.1749 014.9255 14.22001342 75615
/EX
1
0
SB KEPS @ AMSAT $ORB11062.O
Orbital Elements 11062.OSCAR
HR AMSAT ORBITAL ELEMENTS FOR OSCAR SATELLITES
FROM WA5QGD FORT WORTH,TX March 3, 2011
Send Subscribe/unsubscribe to KEPS at http://www.amsat.org/mailman/listinfo/keps
BID: ORB11062.O
TO ALL RADIO AMATEURS BT
Satellite: AO-07
Catalog number: 07530
Epoch time: 11061.85448544
Element set: 17
Inclination: 101.3952 deg
RA of node: 072.5875 deg
Eccentricity: 0.0012113
Arg of perigee: 127.4528 deg
Mean anomaly: 232.7639 deg
Mean motion: 12.53581314 rev/day
Decay rate: -2.7e-07 rev/day^2
